Barnwell, SC

7:16 PM EDT on October 22, 2019 (GMT -0400)
Barnwell County

Weather History for KBNL - September, 2019

Change the Weather History Date:

Saturday, September 21, 2019

  Actual Average (WUND) Record (WUND)
Temperature  
Mean Temperature 73 °F -  
Max Temperature 87 °F - - (-1)
Min Temperature 59 °F - - (-1)
Cooling Degree Days 8    
Growing Degree Days 23 (Base 50)    
Moisture  
Dew Point 58 °F    
Average Humidity 64    
Maximum Humidity 100    
Minimum Humidity 29    
Precipitation  
Precipitation 0.00 in - - ()
Sea Level Pressure  
Sea Level Pressure 30.26 in    
Wind  
Wind Speed 1 mph (ESE)    
Max Wind Speed 10 mph    
Max Gust Speed 14 mph    
Averages and records for this station are not official NWS values.
T = Trace of Precipitation, MM = Missing Value Source: NWS Daily Summary

Daily Weather History Graph

Daily Weather History Graph

Search for Another Location

Airport or City:

Astronomy

Sep. 21, 2019 Rise Set
Actual Time 7:12 AM EDT 7:23 PM EDT
Civil Twilight 6:48 AM EDT 7:48 PM EDT
Nautical Twilight 6:19 AM EDT 8:17 PM EDT
Astronomical Twilight 5:49 AM EDT 8:46 PM EDT
Moon No Moon Rise 1:58 PM EDT (9/21)
Length of Visible Light 13h 00m
Length of Day
12h 11m
Waning Gibbous, 55% of the Moon is Illuminated
Sep 21
Waning Gibbous
Sep 21
Last Quarter
Sep 28
New
Oct 5
First Quarter
Oct 13
Full

Hourly Weather History & Observations

Time (EDT) Temp. Heat Index Dew Point Humidity Pressure Visibility Wind Dir Wind Speed Gust Speed Precip Events Conditions
12:15 AM 64.4 °F - 60.8 °F 88% 30.28 in - Calm Calm - N/A   Unknown
12:35 AM 64.4 °F - 60.8 °F 88% 30.28 in - Calm Calm - N/A   Mostly Cloudy
12:55 AM 64.4 °F - 60.8 °F 88% 30.28 in - Calm Calm - N/A   Unknown
1:15 AM 64.4 °F - 60.8 °F 88% 30.28 in - Calm Calm - N/A   Unknown
1:35 AM 64.4 °F - 62.6 °F 94% 30.29 in - Calm Calm - N/A   Unknown
1:55 AM 64.4 °F - 60.8 °F 88% 30.29 in - Calm Calm - N/A   Unknown
2:35 AM 62.6 °F - 60.8 °F 94% 30.28 in - Calm Calm - N/A   Unknown
2:55 AM 62.6 °F - 60.8 °F 94% 30.28 in - Calm Calm - N/A   Unknown
3:15 AM 62.6 °F - 60.8 °F 94% 30.27 in - Calm Calm - N/A   Mostly Cloudy
3:35 AM 60.8 °F - 59.0 °F 94% 30.27 in - Calm Calm - N/A   Unknown
3:55 AM 60.8 °F - 59.0 °F 94% 30.27 in - Calm Calm - N/A   Unknown
4:35 AM 60.8 °F - 59.0 °F 94% 30.27 in - Calm Calm - N/A   Unknown
4:55 AM 60.8 °F - 59.0 °F 94% 30.27 in - Calm Calm - N/A   Overcast
5:55 AM 60.8 °F - 59.0 °F 94% 30.27 in - Calm Calm - N/A   Unknown
6:35 AM 59.0 °F - 59.0 °F 100% 30.29 in - Calm Calm - N/A   Unknown
6:55 AM 59.0 °F - 57.2 °F 94% 30.29 in - Calm Calm - N/A   Mostly Cloudy
7:15 AM 59.0 °F - 57.2 °F 94% 30.30 in - Calm Calm - N/A   Unknown
7:35 AM 59.0 °F - 57.2 °F 94% 30.30 in - Calm Calm - N/A   Unknown
7:55 AM 59.0 °F - 57.2 °F 94% 30.31 in - Calm Calm - N/A   Unknown
8:15 AM 62.6 °F - 60.8 °F 94% 30.32 in - Calm Calm - N/A   Unknown
8:35 AM 66.2 °F - 62.6 °F 88% 30.32 in - Calm Calm - N/A   Unknown
8:55 AM 68.0 °F - 62.6 °F 83% 30.33 in - NE 4.6 mph - N/A   Clear
9:15 AM 69.8 °F - 62.6 °F 78% 30.33 in - Calm Calm - N/A   Clear
9:35 AM 71.6 °F - 60.8 °F 69% 30.33 in - East 3.5 mph - N/A   Clear
9:55 AM 73.4 °F - 60.8 °F 65% 30.34 in - Calm Calm - N/A   Clear
10:15 AM 75.2 °F - 60.8 °F 61% 30.33 in - East 3.5 mph - N/A   Clear
12:15 PM 80.6 °F 80.8 °F 57.2 °F 45% 30.31 in - Calm Calm - N/A   Clear
12:35 PM 82.4 °F 82.0 °F 57.2 °F 42% 30.30 in - Variable 6.9 mph - N/A   Clear
12:55 PM 84.2 °F 83.5 °F 57.2 °F 40% 30.29 in - Variable 5.8 mph - N/A   Clear
1:15 PM 84.2 °F 83.0 °F 55.4 °F 37% 30.29 in - Variable 4.6 mph - N/A   Clear
1:35 PM 84.2 °F 83.0 °F 55.4 °F 37% 30.28 in - Calm Calm - N/A   Clear
1:55 PM 84.2 °F 83.0 °F 55.4 °F 37% 30.27 in - Variable 5.8 mph 13.8 mph N/A   Clear
2:15 PM 86.0 °F 84.2 °F 53.6 °F 33% 30.26 in - NE 10.4 mph - N/A   Clear
2:35 PM 86.0 °F 84.2 °F 53.6 °F 33% 30.25 in - Calm Calm - N/A   Clear
2:55 PM 86.0 °F 84.2 °F 53.6 °F 33% 30.24 in - ENE 6.9 mph - N/A   Clear
3:15 PM 86.0 °F 84.2 °F 53.6 °F 33% 30.23 in - Calm Calm - N/A   Clear
3:55 PM 86.0 °F 84.2 °F 53.6 °F 33% 30.22 in - SSE 4.6 mph - N/A   Clear
4:15 PM 86.0 °F 84.2 °F 53.6 °F 33% 30.21 in - East 4.6 mph 12.7 mph N/A   Clear
4:35 PM 87.8 °F - 51.8 °F 29% 30.20 in - Calm Calm - N/A   Clear
4:55 PM 87.8 °F - 51.8 °F 29% 30.20 in - East 4.6 mph - N/A   Clear
5:15 PM 87.8 °F - 51.8 °F 29% 30.19 in - ENE 8.1 mph - N/A   Clear
5:35 PM 87.8 °F - 51.8 °F 29% 30.19 in - Calm Calm - N/A   Clear
5:55 PM 86.0 °F - 51.8 °F 31% 30.19 in - Calm Calm - N/A   Clear
6:15 PM 86.0 °F - 51.8 °F 31% 30.20 in - SE 8.1 mph - N/A   Clear
6:55 PM 84.2 °F - 51.8 °F 33% 30.20 in - SE 5.8 mph - N/A   Clear
7:15 PM 82.4 °F 81.4 °F 53.6 °F 37% 30.20 in - SE 4.6 mph - N/A   Clear
7:35 PM 80.6 °F 80.3 °F 53.6 °F 39% 30.20 in - Calm Calm - N/A   Clear
7:55 PM 78.8 °F - 55.4 °F 44% 30.20 in - Calm Calm - N/A   Clear
8:15 PM 75.2 °F - 55.4 °F 50% 30.21 in - Calm Calm - N/A   Scattered Clouds
8:35 PM 75.2 °F - 57.2 °F 53% 30.21 in - ESE 4.6 mph - N/A   Scattered Clouds
8:55 PM 75.2 °F - 57.2 °F 53% 30.22 in - SE 6.9 mph - N/A   Partly Cloudy
9:35 PM 73.4 °F - 59.0 °F 61% 30.23 in - SSE 4.6 mph - N/A   Partly Cloudy
9:55 PM 73.4 °F - 60.8 °F 65% 30.24 in - SSE 4.6 mph - N/A   Clear
10:15 PM 71.6 °F - 60.8 °F 69% 30.24 in - Calm Calm - N/A   Clear
10:35 PM 71.6 °F - 60.8 °F 69% 30.25 in - Calm Calm - N/A   Clear
10:55 PM 71.6 °F - 60.8 °F 69% 30.25 in - Calm Calm - N/A   Clear
11:15 PM 69.8 °F - 60.8 °F 73% 30.25 in - Calm Calm - N/A   Clear
11:35 PM 68.0 °F - 60.8 °F 78% 30.25 in - Calm Calm - N/A   Clear